Tracking 19246 objects as of 21-Sep-2018
HD Live streaming from Space Station
objects crossing your sky now

FENGYUN 1C DEB

Track FENGYUN 1C DEB now!
10-day predictions


NORAD ID: 31385
Int'l Code: 1999-025BSR
Perigee: 662.9 km
Apogee: 861.4 km
Inclination: 98.9 °
Period: 99.9 minutes
Semi major axis: 7133 km
RCS: 0.007 m2 (small)
Launch date: May 10, 1999
Source: People's Republic of China (PRC)
Launch site: Taiyaun Space Center, China (TSC)

Note: This is SATELLITE DEBRIS
aabbcc
Your satellite tracking list
Your tracking list is empty




NASA's NSSDC Master Catalog

Two Line Element Set (TLE):
1 31385U 99025BSR 18262.54591670 +.00000024 +00000-0 +21948-4 0  9995
2 31385 098.9461 171.0034 0139118 313.7972 171.5194 14.41048094605543
Source of the keplerian elements: AFSPC